Regional Weather Roundup
Issued by NWS Sioux Falls, SD

Home | Current Version | Previous Version | Text Only | Print | Product List | Glossary On
Versions: 1 2 3 4 5 6 7 8 9 10 11 12 13 14 15 16 17 18 19 20 21 22 23 24 25 26 27 28 29 30 31 32 33 34 35 36 37 38 39 40 41 42 43 44 45 46 47 48 49 50
000
ASUS43 KFSD 190910
RWRFSD

WEATHER ROUNDUP FOR SE SOUTH DAKOTA/SW MINNESOTA/NW IOWA
NATIONAL WEATHER SERVICE SIOUX FALLS SD
400 AM CDT SUN APR 19 2015

NOTE: "FAIR" INDICATES FEW OR NO CLOUDS BELOW 12,000 FEET WITH NO
SIGNIFICANT WEATHER AND OR OBSTRUCTIONS TO VISIBILITY.


SDZ038>040-050-052>070-191000-
SOUTHEAST SOUTH DAKOTA

CITY           SKY/WX    TMP DP  RH WIND       PRES   REMARKS
BROOKINGS      CLOUDY    57  55  94 SW10      29.72F
CHAMBERLAIN    CLOUDY    47  45  93 NW15      29.84R
HURON          CLOUDY    49  47  93 NW24G30   29.76S
MADISON        CLOUDY    54  54 100 W10       29.72F FOG
MITCHELL       CLOUDY    52  51  97 W16G24    29.76F FOG
SIOUX FALLS    CLOUDY    56  55  97 SW5       29.72F
WINNER         LGT RAIN  48  44  86 NW16G24   29.87R
YANKTON        CLOUDY    55  54  94 W14       29.74S
$$

MNZ071-072-080-081-089-090-097-098-191000-
SOUTHWEST MINNESOTA

CITY           SKY/WX    TMP DP  RH WIND       PRES   REMARKS
FAIRMONT       CLOUDY    55  46  71 S9        29.74F
JACKSON        CLOUDY    55  54  94 S7        29.75F FOG
LUVERNE        CLOUDY    55  54  94 S8        29.74F FOG
MARSHALL       CLOUDY    55  50  82 S13       29.71F
MONTEVIDEO     CLOUDY    55  55 100 SW8       29.71F FOG
PIPESTONE      CLOUDY    55  54  94 SW12      29.72F FOG
REDWOOD FALLS  CLOUDY    55  54  96 S12       29.72F FOG
TRACY          DRIZZLE   55  54  95 S9        29.72F
WORTHINGTON    CLOUDY    54  52  94 S8        29.75S
$$

IAZ001>003-012>014-020>022-031-032-NEZ013-014-SDZ071-191000-
NORTHWEST IOWA

CITY           SKY/WX    TMP DP  RH WIND       PRES   REMARKS
CHEROKEE       LGT RAIN  54  54 100 S5        29.75S
DENISON        CLOUDY    55  55 100 CALM      29.74F
ESTHERVILLE    FOG       54  54 100 S6        29.74F VSB 3/4
LE MARS        CLOUDY    55  55 100 SW3       29.76R
ORANGE CITY    CLOUDY   N/A N/A N/A S3        29.75S FOG
SHELDON        CLOUDY    54  54 100 S5        29.73F FOG
SIOUX CITY     FOG       54  53  97 SE6       29.73F VSB 1/4
SPENCER        FOG       53  52  96 S3        29.75F VSB 1/2
STORM LAKE     CLOUDY    54  54 100 S6        29.77S
$$

ABBREVIATIONS USED IN REMARKS
   TC - TEMPERATURE IN CELSIUS
  WCI - WIND CHILL INDEX
   HX - HEAT INDEX
  VSB - VISIBILITY



USA.gov is the U.S. government's official web portal to all federal, state and local government web resources and services.